Regional Weather Roundup
Issued by NWS

Home | Current Version | Previous Version | Text Only | Print | Product List | Glossary Off
Versions: 1 2 3 4 5 6 7 8 9 10 11 12 13 14 15 16 17 18 19 20 21 22 23 24 25 26 27 28 29 30 31 32 33 34 35 36 37 38 39 40 41 42 43 44 45 46 47 48 49 50

000
ASUS43 KLMK 031202
RWRKY
KENTUCKY REGIONAL WEATHER ROUNDUP
NATIONAL WEATHER SERVICE LOUISVILLE KY
800 AM EDT TUE MAY 03 2016

NOTE "FAIR" INDICATES FEW OR NO CLOUDS BELOW 12,000 FEET
WITH NO SIGNIFICANT WEATHER AND/OR OBSTRUCTIONS TO VISIBILITY.

KYZ001>023-026-027-061>063-070>075-031300-
WESTERN AND SOUTH CENTRAL KENTUCKY

CITY           SKY/WX    TMP DP  RH WIND       PRES   REMARKS
PADUCAH        CLOUDY    53  49  86 NW3       30.00R
HENDERSON      SUNNY     52  46  82 W7        29.97R
OWENSBORO      PTSUNNY   52  52 100 W5        29.97R
HOPKINSVILLE   CLOUDY    53  50  88 VRB5      29.97R
BOWLING GREEN  PTSUNNY   54  50  86 W5        29.96R
GLASGOW        NOT AVBL
$$

KYZ024-025-028>034-038-045-046-053-031300-
NORTH CENTRAL KENTUCKY

CITY           SKY/WX    TMP DP  RH WIND       PRES   REMARKS
LOUISVILLE/SDF PTSUNNY   55  48  77 W9        29.94R
LOUISVILLE/LOU CLOUDY    55  47  74 NW8       29.94S
FORT KNOX      NOT AVBL
$$

KYZ035>037-039>044-047>052-055>060-089>105-031300-
NORTHEAST KENTUCKY

CITY           SKY/WX    TMP DP  RH WIND       PRES   REMARKS
LEXINGTON      CLOUDY    55  51  86 W6        29.92R
COVINGTON      CLOUDY    54  51  90 NW5       29.90R
FRANKFORT      CLOUDY    54  49  83 W7        29.91R
$$

KYZ054-064>069-076>088-106>120-031300-
SOUTHEAST KENTUCKY

CITY           SKY/WX    TMP DP  RH WIND       PRES   REMARKS
JACKSON        CLOUDY    55  52  89 CALM      29.90S FOG
LONDON         CLOUDY    55  54  96 W5        29.92R
SOMERSET       NOT AVBL
MIDDLESBORO    NOT AVBL
MONTICELLO     CLOUDY    56  54  93 NW6       29.95R
$$





USA.gov is the U.S. government's official web portal to all federal, state and local government web resources and services.